TAM3575 SBCT-SBSP

Flight info

Callsign TAM3575
Flight time 0h 39m
Altitude 31000
Route EDVEB UM548 DOSMU DCT ANISE
Aircraft A320/M-SDE3FGHIRWY/LB1

Departure

Time 2026-04-30 22:07
Airport Curitiba-Afonso Pena International Airport (SBCT)

Arrival

Time 2026-04-30 22:47
Airport Congonhas–Deputado Freitas Nobre Airport (SBSP)
Time Latitude Longitude Altitude Speed Heading
2026-04-30 21:46 -25.53694 -49.17084 2993 ft 0 kts 225°
2026-04-30 21:58 -25.53682 -49.17071 2993 ft 4 kts 226°
2026-04-30 21:58 -25.53665 -49.17049 2993 ft 4 kts 237°
2026-04-30 21:59 -25.53655 -49.17024 2990 ft 4 kts 283°
2026-04-30 21:59 -25.53667 -49.17004 2990 ft 4 kts 315°
2026-04-30 21:59 -25.53686 -49.16983 2990 ft 4 kts 315°
2026-04-30 22:00 -25.53693 -49.16975 2990 ft 0 kts 315°
2026-04-30 22:02 -25.53686 -49.16984 2990 ft 3 kts 315°
2026-04-30 22:02 -25.53660 -49.16998 2990 ft 6 kts 348°
2026-04-30 22:02 -25.53619 -49.16985 2990 ft 7 kts 24°
2026-04-30 22:02 -25.53575 -49.16993 2991 ft 7 kts 329°
2026-04-30 22:03 -25.53543 -49.17024 2991 ft 8 kts 316°
2026-04-30 22:03 -25.53525 -49.17043 2991 ft 8 kts 315°
2026-04-30 22:03 -25.53481 -49.17091 2991 ft 10 kts 315°
2026-04-30 22:03 -25.53429 -49.17150 2991 ft 12 kts 315°
2026-04-30 22:04 -25.53368 -49.17219 2992 ft 13 kts 314°
2026-04-30 22:04 -25.53306 -49.17290 2994 ft 13 kts 314°
2026-04-30 22:04 -25.53156 -49.17456 2992 ft 17 kts 315°
2026-04-30 22:05 -25.53066 -49.17558 2991 ft 20 kts 315°
2026-04-30 22:05 -25.52984 -49.17667 2988 ft 16 kts 286°
2026-04-30 22:05 -25.52978 -49.17806 2986 ft 19 kts 271°
2026-04-30 22:05 -25.52914 -49.17932 2985 ft 20 kts 316°
2026-04-30 22:06 -25.52832 -49.17993 2984 ft 4 kts 43°
2026-04-30 22:06 -25.52832 -49.17963 2985 ft 13 kts 92°
2026-04-30 22:06 -25.52843 -49.17547 2989 ft 91 kts 92°
2026-04-30 22:07 -25.52869 -49.16620 3002 ft 147 kts 92°
2026-04-30 22:07 -25.52915 -49.15479 3579 ft 151 kts 92°
2026-04-30 22:07 -25.52940 -49.14243 3957 ft 170 kts 89°
2026-04-30 22:07 -25.52825 -49.12853 4201 ft 197 kts 81°
2026-04-30 22:08 -25.52541 -49.11238 4485 ft 228 kts 78°
2026-04-30 22:08 -25.52199 -49.09421 4961 ft 253 kts 79°
2026-04-30 22:08 -25.51830 -49.07454 5663 ft 268 kts 78°
2026-04-30 22:08 -25.51446 -49.05385 6438 ft 279 kts 78°
2026-04-30 22:09 -25.51060 -49.03246 7241 ft 287 kts 78°
2026-04-30 22:09 -25.50676 -49.01059 8110 ft 292 kts 79°
2026-04-30 22:09 -25.50291 -48.98836 8982 ft 297 kts 79°
2026-04-30 22:09 -25.49901 -48.96578 9843 ft 301 kts 79°
2026-04-30 22:10 -25.49504 -48.94271 10469 ft 313 kts 79°
2026-04-30 22:10 -25.49081 -48.91824 10775 ft 333 kts 79°
2026-04-30 22:10 -25.48639 -48.89270 11404 ft 341 kts 79°
2026-04-30 22:10 -25.48197 -48.86708 12115 ft 345 kts 79°
2026-04-30 22:11 -25.47280 -48.81430 13603 ft 353 kts 79°
2026-04-30 22:11 -25.46816 -48.78748 14291 ft 357 kts 79°
2026-04-30 22:11 -25.46346 -48.76033 14916 ft 361 kts 79°
2026-04-30 22:12 -25.45872 -48.73292 15564 ft 364 kts 79°
2026-04-30 22:12 -25.45392 -48.70524 16197 ft 369 kts 78°
2026-04-30 22:12 -25.44903 -48.67718 16853 ft 373 kts 79°
2026-04-30 22:12 -25.44407 -48.64892 17523 ft 376 kts 79°
2026-04-30 22:13 -25.43907 -48.62041 18174 ft 379 kts 78°
2026-04-30 22:13 -25.43403 -48.59161 18774 ft 383 kts 78°
2026-04-30 22:13 -25.42894 -48.56254 19310 ft 387 kts 78°
2026-04-30 22:13 -25.42377 -48.53308 19839 ft 392 kts 78°
2026-04-30 22:14 -25.41850 -48.50328 20384 ft 397 kts 78°
2026-04-30 22:14 -25.41317 -48.47317 20917 ft 402 kts 78°
2026-04-30 22:14 -25.40783 -48.44299 21433 ft 407 kts 77°
2026-04-30 22:14 -25.40238 -48.41209 21967 ft 412 kts 78°
2026-04-30 22:15 -25.39689 -48.38080 22512 ft 417 kts 78°
2026-04-30 22:15 -25.39134 -48.34920 23063 ft 421 kts 77°
2026-04-30 22:15 -25.38568 -48.31714 23633 ft 427 kts 77°
2026-04-30 22:15 -25.37995 -48.28472 24135 ft 432 kts 77°
2026-04-30 22:16 -25.37413 -48.25187 24635 ft 437 kts 77°
2026-04-30 22:16 -25.36822 -48.21868 25109 ft 442 kts 77°
2026-04-30 22:17 -25.35010 -48.11734 26560 ft 457 kts 77°
2026-04-30 22:17 -25.34383 -48.08217 27032 ft 463 kts 77°
2026-04-30 22:17 -25.33132 -48.01214 27924 ft 472 kts 77°
2026-04-30 22:18 -25.32488 -47.97633 28372 ft 477 kts 77°
2026-04-30 22:18 -25.31186 -47.90373 29269 ft 486 kts 77°
2026-04-30 22:19 -25.29854 -47.82974 30168 ft 496 kts 77°
2026-04-30 22:19 -25.29178 -47.79217 30545 ft 500 kts 77°
2026-04-30 22:19 -25.27811 -47.71644 31095 ft 504 kts 77°
2026-04-30 22:20 -25.27136 -47.67887 31133 ft 490 kts 77°
2026-04-30 22:20 -25.25843 -47.60695 31131 ft 469 kts 77°
2026-04-30 22:20 -25.25206 -47.57163 31137 ft 467 kts 77°
2026-04-30 22:21 -25.23931 -47.50190 31131 ft 465 kts 75°
2026-04-30 22:21 -25.22977 -47.46792 31139 ft 462 kts 64°
2026-04-30 22:21 -25.21545 -47.43643 31138 ft 457 kts 54°
2026-04-30 22:22 -25.17671 -47.38144 31129 ft 453 kts 45°
2026-04-30 22:22 -25.13633 -47.32796 31136 ft 453 kts 46°
2026-04-30 22:23 -25.09604 -47.27438 31140 ft 454 kts 46°
2026-04-30 22:23 -25.05569 -47.22084 31143 ft 453 kts 45°
2026-04-30 22:24 -25.01513 -47.16749 31137 ft 453 kts 45°
2026-04-30 22:24 -24.97461 -47.11421 31139 ft 453 kts 45°
2026-04-30 22:25 -24.93443 -47.06127 31129 ft 453 kts 46°
2026-04-30 22:25 -24.91422 -47.03455 30653 ft 455 kts 46°
2026-04-30 22:25 -24.89395 -47.00780 30166 ft 454 kts 45°
2026-04-30 22:26 -24.85361 -46.95460 29203 ft 449 kts 46°
2026-04-30 22:26 -24.83364 -46.92831 28757 ft 446 kts 46°
2026-04-30 22:26 -24.81377 -46.90224 28311 ft 443 kts 46°
2026-04-30 22:27 -24.79399 -46.87637 27874 ft 440 kts 46°
2026-04-30 22:27 -24.77429 -46.85065 27421 ft 438 kts 46°
2026-04-30 22:27 -24.73522 -46.79941 26502 ft 436 kts 46°
2026-04-30 22:28 -24.69640 -46.74849 25664 ft 431 kts 46°
2026-04-30 22:28 -24.67736 -46.72355 25154 ft 432 kts 47°
2026-04-30 22:29 -24.61719 -46.65077 23752 ft 424 kts 32°
2026-04-30 22:29 -24.59216 -46.63517 23597 ft 406 kts 18°
2026-04-30 22:30 -24.48198 -46.62545 21426 ft 391 kts 356°
2026-04-30 22:31 -24.40121 -46.62562 20054 ft 382 kts 357°
2026-04-30 22:32 -24.32261 -46.62567 18694 ft 374 kts 358°
2026-04-30 22:32 -24.27934 -46.62568 18051 ft 364 kts 358°
2026-04-30 22:33 -24.20532 -46.62572 16854 ft 351 kts 358°
2026-04-30 22:33 -24.15672 -46.62573 16014 ft 346 kts 358°
2026-04-30 22:34 -24.08523 -46.62582 14780 ft 341 kts 359°
2026-04-30 22:35 -24.03780 -46.62591 13953 ft 339 kts 359°
2026-04-30 22:36 -23.94484 -46.62593 12311 ft 329 kts 358°
2026-04-30 22:36 -23.92202 -46.62595 11922 ft 327 kts 358°
2026-04-30 22:37 -23.85506 -46.63016 10874 ft 315 kts 340°
2026-04-30 22:37 -23.83544 -46.64042 10512 ft 310 kts 326°
2026-04-30 22:37 -23.79966 -46.66548 9940 ft 300 kts 327°
2026-04-30 22:38 -23.76520 -46.68933 9397 ft 290 kts 327°
2026-04-30 22:38 -23.73195 -46.71232 9211 ft 270 kts 326°
2026-04-30 22:39 -23.71651 -46.72303 9202 ft 256 kts 326°
2026-04-30 22:39 -23.67159 -46.75423 8377 ft 250 kts 326°
2026-04-30 22:40 -23.62730 -46.78498 7390 ft 247 kts 327°
2026-04-30 22:41 -23.58612 -46.81231 6624 ft 222 kts 342°
2026-04-30 22:41 -23.55689 -46.80820 6119 ft 216 kts 34°
2026-04-30 22:42 -23.52390 -46.75726 5157 ft 197 kts 65°
2026-04-30 22:43 -23.52432 -46.73030 4722 ft 177 kts 126°
2026-04-30 22:43 -23.54273 -46.71444 4331 ft 157 kts 148°
2026-04-30 22:44 -23.55958 -46.70282 4023 ft 139 kts 149°
2026-04-30 22:45 -23.59194 -46.68059 3273 ft 137 kts 149°
2026-04-30 22:45 -23.60771 -46.66969 2913 ft 133 kts 147°
2026-04-30 22:46 -23.62340 -46.65875 2603 ft 129 kts 146°
2026-04-30 22:47 -23.63091 -46.65495 2602 ft 16 kts 327°
2026-04-30 22:47 -23.62876 -46.65609 2603 ft 19 kts 327°
2026-04-30 22:48 -23.62798 -46.65664 2603 ft 0 kts 327°
2026-04-30 22:49 -23.62671 -46.65752 2602 ft 15 kts 327°
2026-04-30 22:49 -23.62504 -46.65954 2600 ft 6 kts 236°